Regional Weather Roundup
Issued by NWS Newport/Morehead, NC

Current Version | Previous Version | Graphics & Text | Print | Product List | Glossary Off
Versions: 1 2 3 4 5 6 7 8 9 10 11 12 13 14 15 16 17 18 19 20 21 22 23 24 25 26 27 28 29 30 31 32 33 34 35 36 37 38 39 40 41 42 43 44 45 46 47 48 49 50

000
ASUS42 KMHX 271413
RWRMHX
WEATHER ROUNDUP FOR EASTERN NORTH CAROLINA
NATIONAL WEATHER SERVICE NEWPORT/MOREHEAD CITY NC
1000 AM EDT SAT AUG 27 2016

NOTE: "FAIR" INDICATES FEW OR NO CLOUDS BELOW 12,000 FEET
WITH NO SIGNIFICANT WEATHER AND/OR OBSTRUCTIONS TO VISIBILITY

NCZ015>017-031-032-045>047-102-103-271500-
NORTH COAST

CITY           SKY/WX    TMP DP  RH WIND       PRES   REMARKS
EDENTON        SUNNY     86  73  65 CALM      30.13R
ELIZABETH CITY SUNNY     85  75  72 N5        30.12S
KITTY HAWK     SUNNY     87  79  76 W3        30.11R HX 101
MANTEO         SUNNY     83  75  77 N7        30.12R

$$

NCZ045>047-081-094-103-104-271500-
CENTRAL COAST

CITY           SKY/WX    TMP DP  RH WIND       PRES   REMARKS
FRISCO         SUNNY     85  75  72 VRB6      30.11S

$$

NCZ095-097-098-100-101-271500-
SOUTHERN COAST

CITY           SKY/WX    TMP DP  RH WIND       PRES   REMARKS
BEAUFORT       SUNNY     85  75  72 N7        30.11S
CEDAR ISLAND   NOT AVBL
JACKSONVILLE   SUNNY     83  72  69 NE5       30.11S
PINEY ISLAND   NOT AVBL
WILMINGTON     SUNNY     84  73  69 VRB3      30.11R


$$

NCZ011>013-027>030-043-044-078>080-089-090>093-098-271500-
COASTAL PLAIN

CITY           SKY/WX    TMP DP  RH WIND       PRES   REMARKS
AHOSKIE        SUNNY     81  75  84 CALM      30.12S
CLINTON        SUNNY     83  74  73 CALM      30.13R
ELIZABETHTOWN  SUNNY     84  72  67 CALM      30.12S
GOLDSBORO      SUNNY     85  75  70 VRB3      30.11R
GREENVILLE     MOSUNNY   82  73  74 CALM      30.14R
HAVELOCK       SUNNY     85  74  69 NE5       30.12S
KENANSVILLE    MOSUNNY   84  72  65 CALM      30.13R
KINSTON        NOT AVBL
NEW BERN       MOSUNNY   84  72  67 CALM      30.13S
RICHLANDS      SUNNY     85  74  69 CALM      30.13R
ROCKY MOUNT    MOSUNNY   85  76  74 VRB5      30.12R
WASHINGTON     MOSUNNY   82  73  72 CALM      30.13R
WHITEVILLE     SUNNY     83  73  70 NE5       30.11S

$$

AMZ130-135-150-152-154-156-158-170-250-252-270-ANZ085-086-088-633-658-670-271500-
MARINE OBSERVATIONS

STATION/POSITION TIME  TEMP    WIND        PRES    WAVE   SWELL
                       AIR SEA DIR/SP/G            HT/PER HT/PER
                 (UTC) (F)     (DEG/KT/KT) (MB)    (FT/S) (FT/S)
CHESAPEAKE LIGHT NOT AVBL
64 E VA BEACH    1350   80 80  350/  8/  8 1019.4    3/ 9   2/ 9
DUCK             1300   81 63  290/  6/  7 1019.0
2 E DUCK         1311      78                N/A     2/11
OREGON INLET     1300   81 82  270/  6/  8 1019.5
13E OREGON INLT  1400      81                N/A     3/ 9   3/ 9
HATTERAS CG      1300   82 83  330/  6/  8 1019.2
DIAMOND BUOY     1350   82 85  350/  6/  8 1019.9    3/10   3/10
CAPE LOOKOUT     1400   83      10/  5/  7 1019.5
BEAUFORT LAB     1300   81 81   10/  6/  7 1019.0
30 SE NEW RVR IN 1308   83 84   50/  6/ 10 1019.3
30 SE NEW RVR IN 1325      84                N/A     4/10   2/11
27 SE WRIGHTSVLE 1308   83 84   60/  8/ 10 1019.5
5 SE WRIGHTSVLE  1308   81 83   30/  6/ 10 1020.4
225 S CAPE HAT   1350   82 84   50/ 14/ 17 1018.0    4/ 9   3/ 9
41 SE CHARLESTON 1350   83 83   70/ 12/ 16 1018.1    5/10   3/10

$$




USA.gov is the U.S. government's official web portal to all federal, state and local government web resources and services.